This is the latest recevied weather packets stored in our database for station/object WA6OOO. If no packets are shown the sender has not sent any weather packets the latest 10 day(s).
| Time | Temp. | Humidity | Pressure | Rain* | Wind** | Luminosity | Snow |
|---|---|---|---|---|---|---|---|
| 1777338009 | 15.56° C | 64% | 1018.8 hPa | 0 mm | - | 95 W/m² | - |
| 1777337705 | 16.11° C | 61% | 1018.9 hPa | 0 mm | - | 106 W/m² | - |
| 1777337403 | 16.11° C | 63% | 1018.7 hPa | 0 mm | - | 112 W/m² | - |
| 1777337100 | 16.11° C | 64% | 1018.7 hPa | 0 mm | - | 104 W/m² | - |
| 1777336797 | 16.11° C | 66% | 1018.8 hPa | 0 mm | - | 120 W/m² | - |
| 1777336496 | 16.11° C | 65% | 1018.5 hPa | 0 mm | - | 133 W/m² | - |
| 1777336194 | 16.67° C | 65% | 1018.7 hPa | 0 mm | - | 128 W/m² | - |
| 1777335891 | 17.22° C | 63% | 1018.6 hPa | 0 mm | - | 174 W/m² | - |
| 1777335588 | 17.78° C | 61% | 1018.5 hPa | 0 mm | - | 165 W/m² | - |
| 1777335285 | 17.78° C | 58% | 1018.6 hPa | 0 mm | - | 314 W/m² | - |
| 1777334982 | 17.78° C | 60% | 1018.5 hPa | 0 mm | - | 301 W/m² | - |
| 1777334680 | 17.78° C | 59% | 1018.4 hPa | 0 mm | - | 323 W/m² | - |
| 1777334377 | 17.22° C | 59% | 1018.4 hPa | 0 mm | - | 314 W/m² | - |
| 1777334073 | 16.67° C | 61% | 1018.4 hPa | 0 mm | - | 343 W/m² | - |
| 1777333768 | 16.67° C | 61% | 1018.5 hPa | 0 mm | - | 233 W/m² | - |
| 1777333465 | 16.67° C | 60% | 1018.5 hPa | 0 mm | - | 201 W/m² | - |
| 1777333162 | 17.22° C | 60% | 1018.6 hPa | 0 mm | - | 221 W/m² | - |
| 1777332860 | 17.22° C | 58% | 1018.5 hPa | 0 mm | - | 213 W/m² | - |
| 1777332557 | 17.22° C | 57% | 1018.4 hPa | 0 mm | - | 308 W/m² | - |
| 1777332254 | 18.33° C | 55% | 1018.5 hPa | 0 mm | - | 444 W/m² | - |
| 1777331951 | 18.33° C | 54% | 1018.3 hPa | 0 mm | - | 451 W/m² | - |
| 1777331648 | 18.33° C | 54% | 1018.5 hPa | 0 mm | - | 469 W/m² | - |
| 1777331345 | 18.89° C | 53% | 1018.2 hPa | 0 mm | - | 484 W/m² | - |
| 1777331043 | 18.33° C | 53% | 1018.3 hPa | 0 mm | - | 495 W/m² | - |
| 1777330739 | 18.89° C | 53% | 1018.3 hPa | 0 mm | - | 511 W/m² | - |
* Rain latest hour (hover to see other rain measurements)
** Current wind speed in m/s (hover to see current wind gust speed)